This is the latest recevied weather packets stored in our database for station/object OE7BJT-13. If no packets are shown the sender has not sent any weather packets the latest 10 day(s).
| Time | Temp. | Humidity | Pressure | Rain* | Wind** | Luminosity | Snow |
|---|---|---|---|---|---|---|---|
| 1777527603 | 3.33° C | 90% | 1025 hPa | - | - | - | - |
| 1777526392 | 2.78° C | 88% | 1025 hPa | - | - | - | - |
| 1777525786 | 2.78° C | 88% | 1025 hPa | - | - | - | - |
| 1777525181 | 1.67° C | 92% | 1025 hPa | - | - | - | - |
| 1777523969 | 2.22° C | 89% | 1025 hPa | - | - | - | - |
| 1777523364 | 2.22° C | 89% | 1025 hPa | - | - | - | - |
| 1777522758 | 2.22° C | 95% | 1025 hPa | - | - | - | - |
| 1777522153 | 1.67° C | 91% | 1024 hPa | - | - | - | - |
| 1777521547 | 1.67° C | 90% | 1024 hPa | - | - | - | - |
| 1777520941 | 1.67° C | 89% | 1024 hPa | - | - | - | - |
| 1777520336 | 1.67° C | 93% | 1024 hPa | - | - | - | - |
| 1777519730 | 2.22° C | 89% | 1024 hPa | - | - | - | - |
| 1777519125 | 1.67° C | 93% | 1024 hPa | - | - | - | - |
| 1777518519 | 1.67° C | 89% | 1024 hPa | - | - | - | - |
| 1777517308 | 1.67° C | 91% | 1024 hPa | - | - | - | - |
| 1777516702 | 2.22° C | 89% | 1024 hPa | - | - | - | - |
| 1777516097 | 2.78° C | 87% | 1024 hPa | - | - | - | - |
| 1777515491 | 2.78° C | 88% | 1024 hPa | - | - | - | - |
| 1777514886 | 2.78° C | 88% | 1024 hPa | - | - | - | - |
| 1777514280 | 2.78° C | 87% | 1024 hPa | - | - | - | - |
| 1777513674 | 2.78° C | 88% | 1024 hPa | - | - | - | - |
| 1777513069 | 2.78° C | 86% | 1024 hPa | - | - | - | - |
| 1777512463 | 3.33° C | 85% | 1024 hPa | - | - | - | - |
| 1777509435 | 3.89° C | 81% | 1024 hPa | - | - | - | - |
| 1777508830 | 4.44° C | 81% | 1024 hPa | - | - | - | - |
* Rain since midnight (hover to see other rain measurements)
** Current wind speed in m/s (hover to see current wind gust speed)